Location: Lower Kingswood
(51.2667°N, 0.2167°W)
Time: 20:01:33
(UTC+00:00)

Cosmos 2195 Rocket - Pass Details

Date: 26 September 2023
Orbit: 948 x 993 km, 82.9° (Epoch: 09 December)

Event Time Altitude Azimuth Distance (km) Brightness Sun altitude
Exits shadow 02:26:57 82° 13° (NNE) 970 4.4 -30.2°
Drops below altitude 10° 02:32:51 10° 10° (N) 2,706 7.4 -29.6°
Sets 02:35:23 0° 11° (N) 3,662 8.2 -29.3°
